Time,TemperatureF,DewpointF,PressureIn,WindDirection,WindDirectionDegrees,WindSpeedMPH,WindSpeedGustMPH,Humidity,HourlyPrecipIn,Conditions,Clouds,dailyrainin,SoftwareType,DateUTC
2013-02-01 00:00:00,-2.0,-8.0,30.47,NW,310,15.0,17.0,74,0.00,,,0.00,weatherlink.com 1.10,2013-02-01 06:00:00,
2013-02-01 00:15:00,-2.1,-9.0,30.47,WNW,294,6.0,15.0,74,0.00,,,0.00,weatherlink.com 1.10,2013-02-01 06:15:00,
2013-02-01 00:31:00,-2.4,-9.0,30.48,WNW,284,11.0,15.0,75,0.00,,,0.00,weatherlink.com 1.10,2013-02-01 06:31:00,
2013-02-01 00:46:00,-2.6,-9.0,30.48,WNW,292,5.0,13.0,75,0.00,,,0.00,weatherlink.com 1.10,2013-02-01 06:46:00,
2013-02-01 01:01:00,-2.6,-9.0,30.48,WNW,284,10.0,18.0,75,0.00,,,0.00,weatherlink.com 1.10,2013-02-01 07:01:00,
2013-02-01 01:16:00,-2.9,-9.0,30.47,WNW,293,4.0,16.0,75,0.00,,,0.00,weatherlink.com 1.10,2013-02-01 07:16:00,
2013-02-01 01:31:00,-3.0,-9.0,30.47,WNW,289,7.0,13.0,75,0.00,,,0.00,weatherlink.com 1.10,2013-02-01 07:31:00,
2013-02-01 01:46:00,-3.2,-9.0,30.48,West,281,12.0,13.0,76,0.00,,,0.00,weatherlink.com 1.10,2013-02-01 07:46:00,
2013-02-01 02:01:00,-3.4,-9.0,30.48,West,278,3.0,16.0,76,0.00,,,0.00,weatherlink.com 1.10,2013-02-01 08:01:00,
2013-02-01 02:16:00,-3.6,-9.0,30.48,WNW,283,3.0,11.0,76,0.00,,,0.00,weatherlink.com 1.10,2013-02-01 08:16:00,
2013-02-01 02:31:00,-3.8,-10.0,30.48,WNW,287,11.0,15.0,76,0.00,,,0.00,weatherlink.com 1.10,2013-02-01 08:31:00,
2013-02-01 02:46:00,-4.0,-10.0,30.49,West,281,3.0,12.0,76,0.00,,,0.00,weatherlink.com 1.10,2013-02-01 08:46:00,
2013-02-01 03:01:00,-4.2,-10.0,30.49,West,280,7.0,10.0,76,0.00,,,0.00,weatherlink.com 1.10,2013-02-01 09:01:00,
2013-02-01 03:16:00,-4.6,-10.0,30.50,West,275,7.0,11.0,76,0.00,,,0.00,weatherlink.com 1.10,2013-02-01 09:16:00,
2013-02-01 03:31:00,-4.9,-10.0,30.50,West,268,8.0,12.0,77,0.00,,,0.00,weatherlink.com 1.10,2013-02-01 09:31:00,
2013-02-01 03:47:00,-5.0,-10.0,30.49,West,271,9.0,12.0,77,0.00,,,0.00,weatherlink.com 1.10,2013-02-01 09:47:00,
2013-02-01 04:02:00,-4.8,-10.0,30.50,West,277,9.0,17.0,77,0.00,,,0.00,weatherlink.com 1.10,2013-02-01 10:02:00,
2013-02-01 04:17:00,-5.0,-10.0,30.50,West,273,7.0,10.0,77,0.00,,,0.00,weatherlink.com 1.10,2013-02-01 10:17:00,
2013-02-01 04:32:00,-5.2,-11.0,30.49,West,272,10.0,12.0,77,0.00,,,0.00,weatherlink.com 1.10,2013-02-01 10:32:00,
2013-02-01 04:47:00,-5.3,-11.0,30.49,West,274,7.0,10.0,77,0.00,,,0.00,weatherlink.com 1.10,2013-02-01 10:47:00,
2013-02-01 05:02:00,-5.7,-11.0,30.48,West,274,3.0,8.0,77,0.00,,,0.00,weatherlink.com 1.10,2013-02-01 11:02:00,
2013-02-01 05:17:00,-6.1,-12.0,30.47,West,274,1.0,4.0,77,0.00,,,0.00,weatherlink.com 1.10,2013-02-01 11:17:00,
2013-02-01 05:32:00,-6.4,-12.0,30.48,West,274,4.0,5.0,78,0.00,,,0.00,weatherlink.com 1.10,2013-02-01 11:32:00,
2013-02-01 05:47:00,-6.8,-12.0,30.48,West,274,2.0,8.0,78,0.00,,,0.00,weatherlink.com 1.10,2013-02-01 11:47:00,
2013-02-01 06:02:00,-6.8,-12.0,30.46,West,274,3.0,5.0,78,0.00,,,0.00,weatherlink.com 1.10,2013-02-01 12:02:00,
2013-02-01 06:17:00,-6.8,-12.0,30.46,West,275,1.0,7.0,79,0.00,,,0.00,weatherlink.com 1.10,2013-02-01 12:17:00,
2013-02-01 06:32:00,-6.9,-12.0,30.47,West,275,0.0,2.0,79,0.00,,,0.00,weatherlink.com 1.10,2013-02-01 12:32:00,
2013-02-01 06:47:00,-7.3,-12.0,30.48,West,275,1.0,5.0,79,0.00,,,0.00,weatherlink.com 1.10,2013-02-01 12:47:00,
2013-02-01 07:03:00,-7.8,-13.0,30.48,West,275,0.0,1.0,79,0.00,,,0.00,weatherlink.com 1.10,2013-02-01 13:03:00,
2013-02-01 07:18:00,-8.1,-13.0,30.48,West,275,3.0,3.0,79,0.00,,,0.00,weatherlink.com 1.10,2013-02-01 13:18:00,
2013-02-01 07:33:00,-8.4,-13.0,30.49,West,274,1.0,5.0,80,0.00,,,0.00,weatherlink.com 1.10,2013-02-01 13:33:00,
2013-02-01 07:48:00,-8.2,-13.0,30.48,West,273,0.0,6.0,80,0.00,,,0.00,weatherlink.com 1.10,2013-02-01 13:48:00,
2013-02-01 08:03:00,-8.0,-12.0,30.48,West,273,0.0,5.0,81,0.00,,,0.00,weatherlink.com 1.10,2013-02-01 14:03:00,
2013-02-01 08:18:00,-6.1,-10.0,30.49,West,273,3.0,7.0,82,0.00,,,0.00,weatherlink.com 1.10,2013-02-01 14:18:00,
2013-02-01 08:33:00,-4.4,-9.0,30.49,West,273,3.0,6.0,80,0.00,,,0.00,weatherlink.com 1.10,2013-02-01 14:33:00,
2013-02-01 08:48:00,-2.9,-9.0,30.50,West,273,4.0,7.0,76,0.00,,,0.00,weatherlink.com 1.10,2013-02-01 14:48:00,
2013-02-01 09:03:00,-1.3,-8.0,30.49,West,272,4.0,4.0,74,0.00,,,0.00,weatherlink.com 1.10,2013-02-01 15:03:00,
2013-02-01 09:18:00,-0.7,-8.0,30.48,West,272,0.0,0.0,71,0.00,,,0.00,weatherlink.com 1.10,2013-02-01 15:18:00,
2013-02-01 09:33:00,1.4,-7.0,30.49,West,272,2.0,6.0,68,0.00,,,0.00,weatherlink.com 1.10,2013-02-01 15:33:00,
2013-02-01 09:48:00,2.1,-7.0,30.48,West,272,0.0,8.0,66,0.00,,,0.00,weatherlink.com 1.10,2013-02-01 15:48:00,
2013-02-01 10:03:00,3.0,-6.0,30.48,West,271,0.0,6.0,66,0.00,,,0.00,weatherlink.com 1.10,2013-02-01 16:03:00,
2013-02-01 10:18:00,3.2,-6.0,30.48,West,261,4.0,10.0,66,0.00,,,0.00,weatherlink.com 1.10,2013-02-01 16:18:00,
2013-02-01 10:34:00,3.3,-6.0,30.48,WSW,257,3.0,5.0,66,0.00,,,0.00,weatherlink.com 1.10,2013-02-01 16:34:00,
2013-02-01 10:49:00,4.2,-5.0,30.46,WSW,256,0.0,5.0,66,0.00,,,0.00,weatherlink.com 1.10,2013-02-01 16:49:00,
2013-02-01 11:04:00,3.8,-6.0,30.46,WSW,255,0.0,3.0,64,0.00,,,0.00,weatherlink.com 1.10,2013-02-01 17:04:00,
2013-02-01 11:19:00,5.3,-5.0,30.46,WSW,251,0.0,6.0,64,0.00,,,0.00,weatherlink.com 1.10,2013-02-01 17:19:00,
2013-02-01 11:34:00,5.2,-5.0,30.45,South,191,1.0,7.0,64,0.00,,,0.00,weatherlink.com 1.10,2013-02-01 17:34:00,
2013-02-01 11:49:00,5.6,-5.0,30.45,South,174,2.0,8.0,63,0.00,,,0.00,weatherlink.com 1.10,2013-02-01 17:49:00,
2013-02-01 12:04:00,6.2,-4.0,30.43,SSE,167,2.0,8.0,63,0.00,,,0.00,weatherlink.com 1.10,2013-02-01 18:04:00,
2013-02-01 12:19:00,6.7,-3.0,30.42,SSE,165,0.0,11.0,64,0.00,,,0.00,weatherlink.com 1.10,2013-02-01 18:19:00,
2013-02-01 12:34:00,6.9,-3.0,30.40,SSE,155,3.0,9.0,64,0.00,,,0.00,weatherlink.com 1.10,2013-02-01 18:34:00,
2013-02-01 12:49:00,6.8,-3.0,30.39,SSE,155,0.0,6.0,65,0.00,,,0.00,weatherlink.com 1.10,2013-02-01 18:49:00,
2013-02-01 13:04:00,7.4,-2.0,30.38,SSE,154,0.0,8.0,65,0.00,,,0.00,weatherlink.com 1.10,2013-02-01 19:04:00,
2013-02-01 13:19:00,7.9,-1.0,30.36,SSE,152,3.0,9.0,67,0.00,,,0.00,weatherlink.com 1.10,2013-02-01 19:19:00,
2013-02-01 13:34:00,8.3,-1.0,30.35,SSE,152,4.0,12.0,66,0.00,,,0.00,weatherlink.com 1.10,2013-02-01 19:34:00,
2013-02-01 14:05:00,9.7,1.0,30.33,SSE,150,1.0,12.0,68,0.00,,,0.00,weatherlink.com 1.10,2013-02-01 20:05:00,
2013-02-01 14:20:00,10.5,1.0,30.32,SSE,159,0.0,14.0,66,0.00,,,0.00,weatherlink.com 1.10,2013-02-01 20:20:00,
2013-02-01 14:35:00,11.9,3.0,30.32,SSE,159,5.0,12.0,67,0.00,,,0.00,weatherlink.com 1.10,2013-02-01 20:35:00,
2013-02-01 14:50:00,12.5,3.0,30.32,South,169,2.0,10.0,67,0.00,,,0.00,weatherlink.com 1.10,2013-02-01 20:50:00,
2013-02-01 15:05:00,12.7,3.0,30.31,SSE,155,0.0,10.0,66,0.00,,,0.00,weatherlink.com 1.10,2013-02-01 21:05:00,
2013-02-01 15:20:00,12.9,4.0,30.31,SSE,150,1.0,9.0,67,0.00,,,0.00,weatherlink.com 1.10,2013-02-01 21:20:00,
2013-02-01 15:35:00,13.4,5.0,30.30,SSE,159,0.0,11.0,68,0.00,,,0.00,weatherlink.com 1.10,2013-02-01 21:35:00,
2013-02-01 15:50:00,13.7,5.0,30.30,SSE,155,5.0,10.0,69,0.00,,,0.00,weatherlink.com 1.10,2013-02-01 21:50:00,
2013-02-01 16:05:00,14.4,6.0,30.28,SSE,157,2.0,10.0,69,0.00,,,0.00,weatherlink.com 1.10,2013-02-01 22:05:00,
2013-02-01 16:20:00,14.6,6.0,30.28,SSE,155,0.0,10.0,70,0.00,,,0.00,weatherlink.com 1.10,2013-02-01 22:20:00,
2013-02-01 16:35:00,15.1,7.0,30.27,SSE,167,2.0,11.0,70,0.00,,,0.00,weatherlink.com 1.10,2013-02-01 22:35:00,
2013-02-01 17:06:00,15.7,8.0,30.25,SSE,167,0.0,8.0,71,0.00,,,0.00,weatherlink.com 1.10,2013-02-01 23:06:00,
2013-02-01 17:21:00,15.7,8.0,30.24,SSE,167,0.0,6.0,72,0.00,,,0.00,weatherlink.com 1.10,2013-02-01 23:21:00,
2013-02-01 17:36:00,15.6,8.0,30.23,SSE,167,0.0,8.0,73,0.00,,,0.00,weatherlink.com 1.10,2013-02-01 23:36:00,
2013-02-01 17:51:00,15.7,9.0,30.23,SSE,166,3.0,6.0,74,0.00,,,0.00,weatherlink.com 1.10,2013-02-01 23:51:00,
2013-02-01 18:06:00,15.8,9.0,30.23,SSE,167,2.0,7.0,74,0.00,,,0.00,weatherlink.com 1.10,2013-02-02 00:06:00,
2013-02-01 18:21:00,15.9,9.0,30.22,SSE,167,3.0,8.0,75,0.00,,,0.00,weatherlink.com 1.10,2013-02-02 00:21:00,
2013-02-01 18:36:00,15.9,9.0,30.21,SSE,167,0.0,6.0,75,0.00,,,0.00,weatherlink.com 1.10,2013-02-02 00:36:00,
2013-02-01 18:51:00,15.9,9.0,30.20,SSE,167,5.0,9.0,75,0.00,,,0.00,weatherlink.com 1.10,2013-02-02 00:51:00,
2013-02-01 19:06:00,15.9,9.0,30.19,South,172,3.0,10.0,75,0.00,,,0.00,weatherlink.com 1.10,2013-02-02 01:06:00,
2013-02-01 19:21:00,16.1,10.0,30.19,SSE,167,2.0,8.0,76,0.00,,,0.00,weatherlink.com 1.10,2013-02-02 01:21:00,
2013-02-01 19:36:00,16.3,10.0,30.19,SSE,167,3.0,7.0,77,0.00,,,0.00,weatherlink.com 1.10,2013-02-02 01:36:00,
2013-02-01 19:51:00,16.8,11.0,30.19,South,174,3.0,10.0,78,0.00,,,0.00,weatherlink.com 1.10,2013-02-02 01:51:00,
2013-02-01 20:06:00,17.8,12.0,30.18,SSW,192,5.0,13.0,79,0.00,,,0.00,weatherlink.com 1.10,2013-02-02 02:06:00,
2013-02-01 20:21:00,19.1,14.0,30.16,SSW,192,8.0,17.0,79,0.00,,,0.00,weatherlink.com 1.10,2013-02-02 02:21:00,
2013-02-01 20:37:00,19.7,14.0,30.15,SSW,196,10.0,20.0,77,0.00,,,0.00,weatherlink.com 1.10,2013-02-02 02:37:00,
2013-02-01 20:52:00,19.9,14.0,30.15,SSW,202,11.0,17.0,77,0.00,,,0.00,weatherlink.com 1.10,2013-02-02 02:52:00,
2013-02-01 21:07:00,20.1,14.0,30.16,SSW,198,5.0,13.0,78,0.00,,,0.00,weatherlink.com 1.10,2013-02-02 03:07:00,
2013-02-01 21:22:00,20.5,15.0,30.17,SW,216,8.0,16.0,78,0.00,,,0.00,weatherlink.com 1.10,2013-02-02 03:22:00,
2013-02-01 21:37:00,21.0,15.0,30.16,SW,216,5.0,14.0,79,0.00,,,0.00,weatherlink.com 1.10,2013-02-02 03:37:00,
2013-02-01 21:52:00,21.7,16.0,30.17,SSW,213,8.0,14.0,78,0.00,,,0.00,weatherlink.com 1.10,2013-02-02 03:52:00,
2013-02-01 22:07:00,22.2,16.0,30.16,SW,216,9.0,15.0,78,0.00,,,0.00,weatherlink.com 1.10,2013-02-02 04:07:00,
2013-02-01 22:22:00,22.8,17.0,30.16,SSW,212,9.0,15.0,77,0.00,,,0.00,weatherlink.com 1.10,2013-02-02 04:22:00,
2013-02-01 22:37:00,23.3,17.0,30.15,SW,217,9.0,17.0,76,0.00,,,0.00,weatherlink.com 1.10,2013-02-02 04:37:00,
2013-02-01 22:52:00,23.5,17.0,30.14,SW,227,8.0,16.0,76,0.00,,,0.00,weatherlink.com 1.10,2013-02-02 04:52:00,
2013-02-01 23:07:00,23.8,17.0,30.14,SW,216,7.0,20.0,75,0.00,,,0.00,weatherlink.com 1.10,2013-02-02 05:07:00,
2013-02-01 23:22:00,24.0,17.0,30.13,SW,215,10.0,20.0,75,0.00,,,0.00,weatherlink.com 1.10,2013-02-02 05:22:00,
2013-02-01 23:37:00,24.1,17.0,30.13,SW,225,15.0,17.0,75,0.00,,,0.00,weatherlink.com 1.10,2013-02-02 05:37:00,
2013-02-01 23:52:00,24.2,17.0,30.13,SW,225,7.0,20.0,75,0.00,,,0.00,weatherlink.com 1.10,2013-02-02 05:52:00,